When you browse on this site, cookies collect data to enhance your experience and personalize the content and advertising you see.
Visit our Privacy Policy to learn more. By continuing to use the site, you agree to this use of cookies and data.
  • In United Kingdom
  • List of Countries
  • For 7 days
  • Water Temperature
  • Satellite Maps
  • Weather Map
  • Weather Widgets
  • user-avatar
    Login

    Hourly Weather San Pedro Amuzgos

    Today, 21 January, Monday

    Time Temperature Precipitation Wind Pressure Humidity
    00:00 +21°C° 0 mm 1 mps 719 mmHg 75%
    01:00 +20°C° 0 mm 1 mps 719 mmHg 70%
    02:00 +20°C° 0 mm 1 mps 719 mmHg 65%
    03:00 +20°C° 0 mm 1 mps 719 mmHg 60%
    04:00 +19°C° 0 mm 1 mps 719 mmHg 55%
    05:00 +18°C° 0 mm 2 mps 719 mmHg 50%
    06:00 +21°C° 0 mm 1 mps 720 mmHg 46%
    07:00 +22°C° 0 mm 1 mps 720 mmHg 41%
    08:00 +24°C° 0 mm 1 mps 720 mmHg 37%
    09:00 +27°C° 0 mm 1 mps 720 mmHg 34%
    10:00 +30°C° 0 mm 1 mps 720 mmHg 30%
    11:00 +32°C° 0 mm 1 mps 720 mmHg 26%
    12:00 +32°C° 0 mm 2 mps 720 mmHg 28%
    13:00 +32°C° 0 mm 2 mps 719 mmHg 30%
    14:00 +33°C° 0 mm 3 mps 718 mmHg 31%
    15:00 +30°C° 0 mm 2 mps 718 mmHg 42%
    16:00 +28°C° 0 mm 2 mps 718 mmHg 52%
    17:00 +26°C° 0 mm 1 mps 718 mmHg 63%
    18:00 +25°C° 0 mm 1 mps 718 mmHg 70%
    19:00 +23°C° 0 mm 1 mps 719 mmHg 77%
    20:00 +22°C° 0 mm 1 mps 719 mmHg 84%
    21:00 +21°C° 0 mm 1 mps 719 mmHg 83%
    22:00 +21°C° 0 mm 1 mps 719 mmHg 81%
    23:00 +21°C° 0 mm 1 mps 719 mmHg 80%

    Tomorrow, 22 January, Tuesday

    Time Temperature Precipitation Wind Pressure Humidity
    00:00 +21°C° 0 mm 1 mps 719 mmHg 77%
    01:00 +20°C° 0 mm 1 mps 718 mmHg 75%
    02:00 +20°C° 0 mm 1 mps 718 mmHg 72%
    03:00 +20°C° 0 mm 1 mps 718 mmHg 69%
    04:00 +20°C° 0 mm 1 mps 718 mmHg 66%
    05:00 +20°C° 0 mm 1 mps 718 mmHg 63%
    06:00 +22°C° 0 mm 1 mps 718 mmHg 57%
    07:00 +23°C° 0 mm 1 mps 719 mmHg 51%
    08:00 +25°C° 0 mm 1 mps 719 mmHg 45%
    09:00 +28°C° 0 mm 1 mps 720 mmHg 38%
    10:00 +31°C° 0 mm 1 mps 720 mmHg 30%
    11:00 +34°C° 0 mm 1 mps 720 mmHg 23%
    12:00 +34°C° 0 mm 1 mps 719 mmHg 23%
    13:00 +35°C° 0 mm 2 mps 718 mmHg 24%
    14:00 +35°C° 0 mm 2 mps 718 mmHg 24%
    15:00 +32°C° 0 mm 2 mps 717 mmHg 33%
    16:00 +30°C° 0 mm 1 mps 717 mmHg 42%
    17:00 +28°C° 0 mm 1 mps 717 mmHg 51%
    18:00 +26°C° 0 mm 1 mps 718 mmHg 55%
    19:00 +24°C° 0 mm 1 mps 718 mmHg 60%
    20:00 +23°C° 0 mm 1 mps 719 mmHg 65%
    21:00 +22°C° 0 mm 1 mps 719 mmHg 62%
    22:00 +22°C° 0 mm 1 mps 719 mmHg 59%
    23:00 +21°C° 0 mm 1 mps 719 mmHg 57%

    Day after tomorrow, 23 January, Wednesday

    Time Temperature Precipitation Wind Pressure Humidity
    00:00 +21°C° 0 mm 1 mps 718 mmHg 53%
    01:00 +21°C° 0 mm 1 mps 718 mmHg 50%
    02:00 +21°C° 0 mm 1 mps 718 mmHg 47%
    03:00 +19°C° 0 mm 2 mps 718 mmHg 45%
    04:00 +19°C° 0 mm 2 mps 718 mmHg 44%
    05:00 +19°C° 0 mm 2 mps 717 mmHg 42%
    06:00 +22°C° 0 mm 1 mps 718 mmHg 40%
    07:00 +24°C° 0 mm 1 mps 719 mmHg 37%
    08:00 +26°C° 0 mm 1 mps 719 mmHg 35%
    09:00 +29°C° 0 mm 1 mps 719 mmHg 30%
    10:00 +32°C° 0 mm 1 mps 719 mmHg 24%
    11:00 +35°C° 0 mm 1 mps 719 mmHg 19%
    12:00 +36°C° 0 mm 2 mps 718 mmHg 20%
    13:00 +36°C° 0 mm 2 mps 717 mmHg 20%
    14:00 +36°C° 0 mm 2 mps 716 mmHg 21%
    15:00 +34°C° 0 mm 2 mps 716 mmHg 28%
    16:00 +30°C° 0 mm 2 mps 716 mmHg 35%
    17:00 +28°C° 0 mm 1 mps 716 mmHg 42%
    18:00 +26°C° 0 mm 1 mps 717 mmHg 46%
    19:00 +25°C° 0 mm 1 mps 717 mmHg 50%
    20:00 +23°C° 0 mm 1 mps 718 mmHg 54%
    21:00 +23°C° 0 mm 1 mps 718 mmHg 53%
    22:00 +22°C° 0 mm 1 mps 718 mmHg 51%
    23:00 +22°C° 0 mm 1 mps 718 mmHg 50%

    24 January, Thursday

    Time Temperature Precipitation Wind Pressure Humidity
    00:00 +22°C° 0 mm 1 mps 718 mmHg 49%
    01:00 +21°C° 0 mm 1 mps 717 mmHg 48%
    02:00 +21°C° 0 mm 1 mps 717 mmHg 47%
    03:00 +21°C° 0 mm 1 mps 717 mmHg 49%
    04:00 +21°C° 0 mm 1 mps 717 mmHg 51%
    05:00 +20°C° 0 mm 1 mps 717 mmHg 52%
    06:00 +22°C° 0 mm 1 mps 718 mmHg 50%
    07:00 +24°C° 0 mm 1 mps 719 mmHg 47%
    08:00 +26°C° 0 mm 1 mps 720 mmHg 45%
    09:00 +29°C° 0 mm 1 mps 720 mmHg 39%
    10:00 +31°C° 0 mm 1 mps 720 mmHg 32%
    11:00 +34°C° 0 mm 1 mps 720 mmHg 26%
    12:00 +35°C° 0 mm 2 mps 719 mmHg 27%
    13:00 +35°C° 0 mm 2 mps 718 mmHg 27%
    14:00 +34°C° 0 mm 3 mps 717 mmHg 28%
    15:00 +31°C° 0 mm 2 mps 717 mmHg 38%
    16:00 +29°C° 0 mm 2 mps 717 mmHg 47%
    17:00 +27°C° 0 mm 1 mps 716 mmHg 57%
    18:00 +26°C° 0 mm 1 mps 717 mmHg 64%
    19:00 +24°C° 0 mm 1 mps 718 mmHg 71%
    20:00 +22°C° 0 mm 1 mps 718 mmHg 78%
    21:00 +22°C° 0 mm 1 mps 718 mmHg 76%
    22:00 +22°C° 0 mm 1 mps 718 mmHg 74%
    23:00 +21°C° 0 mm 1 mps 718 mmHg 73%

    25 January, Friday

    Time Temperature Precipitation Wind Pressure Humidity
    00:00 +21°C° 0 mm 1 mps 718 mmHg 70%
    01:00 +21°C° 0 mm 1 mps 717 mmHg 67%
    02:00 +21°C° 0 mm 1 mps 717 mmHg 64%
    03:00 +21°C° 0 mm 1 mps 717 mmHg 62%
    04:00 +21°C° 0 mm 1 mps 718 mmHg 60%
    05:00 +21°C° 0 mm 1 mps 718 mmHg 58%
    06:00 +23°C° 0 mm 1 mps 719 mmHg 53%
    07:00 +25°C° 0 mm 1 mps 719 mmHg 47%
    08:00 +27°C° 0 mm 1 mps 720 mmHg 42%
    09:00 +29°C° 0 mm 1 mps 720 mmHg 38%
    10:00 +31°C° 0 mm 1 mps 720 mmHg 35%
    11:00 +35°C° 0 mm 2 mps 720 mmHg 31%
    12:00 +34°C° 0 mm 2 mps 719 mmHg 32%
    13:00 +34°C° 0 mm 3 mps 718 mmHg 34%
    14:00 +34°C° 0 mm 3 mps 718 mmHg 35%
    15:00 +31°C° 0 mm 3 mps 718 mmHg 43%
    16:00 +29°C° 0 mm 2 mps 718 mmHg 50%
    17:00 +27°C° 0 mm 1 mps 718 mmHg 58%
    18:00 +26°C° 0 mm 1 mps 719 mmHg 65%
    19:00 +24°C° 0 mm 1 mps 719 mmHg 73%
    20:00 +21°C° 0 mm 0 mps 720 mmHg 80%
    21:00 +22°C° 0 mm 1 mps 720 mmHg 77%
    22:00 +22°C° 0 mm 1 mps 720 mmHg 75%
    23:00 +22°C° 0 mm 1 mps 720 mmHg 72%

    26 January, Saturday

    Time Temperature Precipitation Wind Pressure Humidity
    00:00 +22°C° 0 mm 1 mps 719 mmHg 67%
    01:00 +22°C° 0 mm 1 mps 719 mmHg 63%
    02:00 +21°C° 0 mm 1 mps 719 mmHg 58%
    03:00 +21°C° 0 mm 1 mps 719 mmHg 56%
    04:00 +21°C° 0 mm 1 mps 719 mmHg 53%
    05:00 +20°C° 0 mm 2 mps 719 mmHg 50%
    06:00 +23°C° 0 mm 1 mps 720 mmHg 47%
    07:00 +24°C° 0 mm 1 mps 720 mmHg 44%
    08:00 +26°C° 0 mm 1 mps 720 mmHg 41%
    09:00 +28°C° 0 mm 1 mps 720 mmHg 37%
    10:00 +30°C° 0 mm 1 mps 720 mmHg 34%
    11:00 +34°C° 0 mm 2 mps 720 mmHg 30%
    12:00 +34°C° 0 mm 2 mps 719 mmHg 32%
    13:00 +34°C° 0 mm 3 mps 718 mmHg 34%
    14:00 +33°C° 0 mm 3 mps 717 mmHg 35%
    15:00 +31°C° 0 mm 2 mps 717 mmHg 42%
    16:00 +29°C° 0 mm 2 mps 717 mmHg 48%
    17:00 +28°C° 0 mm 1 mps 717 mmHg 55%
    18:00 +26°C° 0 mm 1 mps 718 mmHg 61%
    19:00 +24°C° 0 mm 1 mps 718 mmHg 68%
    20:00 +23°C° 0 mm 1 mps 718 mmHg 75%
    21:00 +22°C° 0 mm 1 mps 718 mmHg 75%
    22:00 +22°C° 0 mm 1 mps 718 mmHg 76%
    23:00 +22°C° 0 mm 1 mps 718 mmHg 76%
    Show more